Weather History for KDNS - August, 2013

Change the Weather History Date:

Wednesday, August 21, 2013

  Actual Average Record
Temperature  
Mean Temperature 79 °F -  
Max Temperature 89 °F 79 °F 91 °F (2010)
Min Temperature 69 °F 62 °F 48 °F (2004)
Cooling Degree Days 14    
Growing Degree Days 29 (Base 50)    
Moisture  
Dew Point 69 °F    
Average Humidity 73    
Maximum Humidity 88    
Minimum Humidity 52    
Precipitation  
Precipitation 0.00 in - - ()
Sea Level Pressure  
Sea Level Pressure 29.97 in    
Wind  
Wind Speed 11 mph (SSW)    
Max Wind Speed 16 mph    
Max Gust Speed 25 mph    
Visibility 10 miles    
Events      
Averages and records for this station are not official NWS values.
T = Trace of Precipitation, MM = Missing Value Source: NWS Daily Summary

Daily Weather History Graph

Daily Weather History Graph

Search for Another Location

Airport or City:

Trip Planner

Search our weather history database for the weather conditions in past years. The results will help you decide how hot, cold, wet, or windy it might be!

Date:

Astronomy

Aug. 21, 2013 Rise Set
Actual Time 6:35 AM CDT 8:12 PM CDT
Civil Twilight 6:06 AM CDT 8:41 PM CDT
Nautical Twilight 5:30 AM CDT 9:17 PM CDT
Astronomical Twilight 4:52 AM CDT 9:55 PM CDT
Moon 8:19 PM CDT (8/21) 7:18 AM CDT (8/21)
Length of Visible Light 14h 35m
Length of Day
13h 36m
Waxing Gibbous, 99% of the Moon is Illuminated
Aug 21
Waxing Gibbous
Aug 28
Last Quarter
Sep 5
New
Sep 12
First Quarter
Sep 19
Full

Hourly Weather History & Observations

Time (CDT) Temp. Heat Index Dew Point Humidity Pressure Visibility Wind Dir Wind Speed Gust Speed Precip Events Conditions
12:15 AM 75.2 °F - 68.0 °F 78% 29.94 in 10.0 mi South 13.8 mph 19.6 mph N/A   Clear
12:35 AM 75.2 °F - 68.0 °F 78% 29.95 in 10.0 mi South 10.4 mph 18.4 mph N/A   Clear
12:55 AM 75.2 °F - 68.0 °F 78% 29.95 in 10.0 mi South 10.4 mph 17.3 mph N/A   Clear
1:15 AM 75.2 °F - 68.0 °F 78% 29.95 in 10.0 mi SSW 12.7 mph - N/A   Clear
1:35 AM 73.4 °F - 68.0 °F 83% 29.95 in 10.0 mi SSW 9.2 mph 17.3 mph N/A   Clear
1:55 AM 73.4 °F - 68.0 °F 83% 29.95 in 10.0 mi SSW 10.4 mph 17.3 mph N/A   Clear
2:15 AM 73.4 °F - 68.0 °F 83% 29.95 in 10.0 mi SSW 10.4 mph 17.3 mph N/A   Clear
2:35 AM 73.4 °F - 68.0 °F 83% 29.95 in 10.0 mi SSW 10.4 mph 18.4 mph N/A   Clear
2:55 AM 73.4 °F - 68.0 °F 83% 29.95 in 10.0 mi SSW 11.5 mph - N/A   Clear
3:15 AM 73.4 °F - 68.0 °F 83% 29.95 in 10.0 mi SSW 10.4 mph - N/A   Clear
3:35 AM 71.6 °F - 68.0 °F 88% 29.95 in 10.0 mi SSW 8.1 mph 15.0 mph N/A   Clear
3:55 AM 71.6 °F - 68.0 °F 88% 29.96 in 10.0 mi SSW 9.2 mph - N/A   Clear
4:15 AM 71.6 °F - 66.2 °F 83% 29.95 in 10.0 mi SSW 10.4 mph - N/A   Clear
4:35 AM 71.6 °F - 66.2 °F 83% 29.95 in 10.0 mi SSW 10.4 mph - N/A   Clear
4:55 AM 71.6 °F - 66.2 °F 83% 29.95 in 10.0 mi SSW 11.5 mph - N/A   Clear
5:15 AM 71.6 °F - 66.2 °F 83% 29.96 in 10.0 mi SSW 11.5 mph - N/A   Clear
5:35 AM 71.6 °F - 66.2 °F 83% 29.96 in 10.0 mi South 10.4 mph - N/A   Clear
5:55 AM 71.6 °F - 66.2 °F 83% 29.96 in 10.0 mi SSW 10.4 mph 17.3 mph N/A   Clear
6:15 AM 69.8 °F - 66.2 °F 88% 29.96 in 10.0 mi South 13.8 mph - N/A   Clear
6:35 AM 69.8 °F - 66.2 °F 88% 29.97 in 9.0 mi SSW 12.7 mph - N/A   Clear
6:55 AM 69.8 °F - 66.2 °F 88% 29.97 in 9.0 mi South 13.8 mph - N/A   Clear
7:15 AM 69.8 °F - 66.2 °F 88% 29.98 in 9.0 mi SSW 6.9 mph 15.0 mph N/A   Clear
7:35 AM 71.6 °F - 66.2 °F 83% 29.98 in 9.0 mi SSW 9.2 mph 16.1 mph N/A   Clear
7:55 AM 71.6 °F - 66.2 °F 83% 29.98 in 9.0 mi SSW 12.7 mph - N/A   Clear
8:15 AM 71.6 °F - 66.2 °F 83% 29.98 in 9.0 mi SSW 12.7 mph - N/A   Clear
8:35 AM 71.6 °F - 66.2 °F 83% 29.98 in 9.0 mi SSW 10.4 mph - N/A   Clear
8:55 AM 75.2 °F - 68.0 °F 78% 29.98 in 9.0 mi SSW 11.5 mph 18.4 mph N/A   Clear
9:15 AM 75.2 °F - 68.0 °F 78% 29.98 in 10.0 mi SW 11.5 mph 24.2 mph N/A   Clear
9:35 AM 77.0 °F - 68.0 °F 74% 29.97 in 10.0 mi SSW 10.4 mph 18.4 mph N/A   Clear
9:55 AM 77.0 °F - 66.2 °F 69% 29.98 in 10.0 mi SSW 10.4 mph 19.6 mph N/A   Clear
10:15 AM 78.8 °F - 68.0 °F 69% 29.98 in 10.0 mi SW 12.7 mph 18.4 mph N/A   Clear
10:35 AM 80.6 °F 83.2 °F 68.0 °F 65% 29.97 in 10.0 mi SSW 12.7 mph 18.4 mph N/A   Clear
10:55 AM 80.6 °F 82.7 °F 66.2 °F 61% 29.97 in 10.0 mi SSW 15.0 mph 23.0 mph N/A   Clear
11:15 AM 82.4 °F 84.6 °F 66.2 °F 58% 29.97 in 10.0 mi SW 16.1 mph 25.3 mph N/A   Clear
11:35 AM 82.4 °F 84.6 °F 66.2 °F 58% 29.97 in 10.0 mi SSW 16.1 mph 25.3 mph N/A   Clear
11:55 AM 84.2 °F 86.6 °F 66.2 °F 55% 29.96 in 10.0 mi SW 15.0 mph 23.0 mph N/A   Clear
12:15 PM 86.0 °F 89.4 °F 68.0 °F 55% 29.97 in 10.0 mi SSW 12.7 mph 21.9 mph N/A   Clear
12:35 PM 84.2 °F 87.3 °F 68.0 °F 58% 29.97 in 10.0 mi SW 10.4 mph 21.9 mph N/A   Clear
12:55 PM 86.0 °F 89.4 °F 68.0 °F 55% 29.97 in 10.0 mi SW 11.5 mph - N/A   Clear
1:15 PM 86.0 °F 89.4 °F 68.0 °F 55% 29.98 in 10.0 mi WSW 13.8 mph - N/A   Clear
1:35 PM 86.0 °F 89.4 °F 68.0 °F 55% 29.97 in 10.0 mi SW 9.2 mph 16.1 mph N/A   Clear
1:55 PM 87.8 °F 91.4 °F 68.0 °F 52% 29.98 in 9.0 mi SW 9.2 mph 17.3 mph N/A   Clear
2:15 PM 86.0 °F 90.4 °F 69.8 °F 58% 29.97 in 9.0 mi SSW 9.2 mph - N/A   Clear
2:35 PM 87.8 °F 92.6 °F 69.8 °F 55% 29.98 in 10.0 mi SW 10.4 mph - N/A   Clear
2:55 PM 89.6 °F 94.7 °F 69.8 °F 52% 29.97 in 10.0 mi SSW 11.5 mph - N/A   Clear
3:15 PM 87.8 °F 92.6 °F 69.8 °F 55% 29.97 in 10.0 mi SSW 12.7 mph - N/A   Clear
3:35 PM 87.8 °F 92.6 °F 69.8 °F 55% 29.97 in 10.0 mi South 12.7 mph - N/A   Clear
3:55 PM 87.8 °F 92.6 °F 69.8 °F 55% 29.96 in 9.0 mi SSW 10.4 mph 19.6 mph N/A   Clear
4:15 PM 87.8 °F 93.8 °F 71.6 °F 58% 29.96 in 9.0 mi SSW 12.7 mph 19.6 mph N/A   Clear
4:35 PM 87.8 °F 92.6 °F 69.8 °F 55% 29.95 in 9.0 mi SSW 13.8 mph - N/A   Clear
4:55 PM 87.8 °F 92.6 °F 69.8 °F 55% 29.96 in 10.0 mi SSW 8.1 mph 16.1 mph N/A   Clear
5:15 PM 87.8 °F 93.8 °F 71.6 °F 58% 29.95 in 10.0 mi South 10.4 mph 16.1 mph N/A   Clear
5:35 PM 87.8 °F 93.8 °F 71.6 °F 58% 29.95 in 10.0 mi South 10.4 mph 18.4 mph N/A   Clear
5:55 PM 87.8 °F 93.8 °F 71.6 °F 58% 29.95 in 10.0 mi Variable 6.9 mph 13.8 mph N/A   Clear
6:15 PM 87.8 °F 95.6 °F 73.4 °F 62% 29.95 in 10.0 mi South 8.1 mph - N/A   Clear
6:35 PM 86.0 °F 93.4 °F 73.4 °F 66% 29.96 in 10.0 mi South 5.8 mph - N/A   Clear
6:55 PM 86.0 °F 93.4 °F 73.4 °F 66% 29.96 in 10.0 mi South 8.1 mph - N/A   Clear
7:15 PM 84.2 °F 90.9 °F 73.4 °F 70% 29.95 in 10.0 mi South 6.9 mph - N/A   Clear
7:35 PM 82.4 °F 88.2 °F 73.4 °F 74% 29.96 in 9.0 mi SSE 4.6 mph - N/A   Clear
7:55 PM 82.4 °F 88.2 °F 73.4 °F 74% 29.96 in 9.0 mi SSE 5.8 mph - N/A   Clear
8:15 PM 80.6 °F 85.4 °F 73.4 °F 79% 29.96 in 9.0 mi Calm Calm - N/A   Clear
8:35 PM 78.8 °F - 73.4 °F 83% 29.96 in 9.0 mi Calm Calm - N/A   Clear
8:55 PM 78.8 °F - 73.4 °F 83% 29.97 in 10.0 mi ESE 4.6 mph - N/A   Clear
9:15 PM 78.8 °F - 73.4 °F 83% 29.97 in 10.0 mi SE 4.6 mph - N/A   Clear
9:35 PM 78.8 °F - 71.6 °F 78% 29.99 in 10.0 mi Calm Calm - N/A   Clear
9:55 PM 77.0 °F - 71.6 °F 83% 29.99 in 10.0 mi SSE 4.6 mph - N/A   Clear
10:15 PM 77.0 °F - 71.6 °F 83% 29.98 in 10.0 mi SSE 8.1 mph - N/A   Clear
10:35 PM 77.0 °F - 71.6 °F 83% 29.98 in 10.0 mi SSE 9.2 mph - N/A   Clear
10:55 PM 77.0 °F - 71.6 °F 83% 29.99 in 10.0 mi SSE 6.9 mph - N/A   Clear
11:15 PM 77.0 °F - 71.6 °F 83% 29.98 in 10.0 mi SSE 9.2 mph - N/A   Clear
11:35 PM 77.0 °F - 71.6 °F 83% 30.00 in 10.0 mi SSE 6.9 mph - N/A   Clear
11:55 PM 77.0 °F - 71.6 °F 83% 30.00 in 10.0 mi SE 4.6 mph - N/A   Clear